GW1898 Weather Reports


Display with metric or nautical units.
time (UTC)temp
F
wind
direction
speed
MPH
gust
MPH
rain 1hr
in
rain 24hr
in
rain mn
in
humidity
%
barometer
mb
20260507120044 55 329 3.0 3.0 0.00 0.41 0.23 71 1013.0
20260507114548 55 321 1.0 1.0 0.00 0.41 0.23 71 1012.8
20260507113040 54 276 0.0 1.0 0.00 0.41 0.23 88 1012.6
20260507111540 55 321 2.0 2.0 0.00 0.41 0.23 88 1012.6
20260507110046 55 0 0.0 1.0 0.00 0.41 0.23 88 1012.4
20260507104544 55 325 1.0 1.0 0.00 0.41 0.23 84 1012.1
20260507103044 54 0 0.0 0.0 0.00 0.41 0.23 84 1012.3
20260507101541 54 0 0.0 1.0 0.00 0.41 0.23 84 1012.1
20260507100042 54 0 0.0 2.0 0.00 0.41 0.23 86 1011.8
20260507094541 55 142 0.0 0.0 0.00 0.41 0.23 86 1011.7
20260507093053 55 246 0.0 2.0 0.00 0.41 0.23 86 1011.9
20260507091549 55 82 2.0 2.0 0.00 0.41 0.23 87 1011.7
20260507090042 55 0 0.0 0.0 0.00 0.41 0.23 87 1011.6
20260507084541 55 0 0.0 0.0 0.00 0.41 0.23 87 1011.5
20260507083041 55 322 2.0 4.0 0.00 0.41 0.23 89 1011.6
20260507081547 55 334 1.0 2.0 0.00 0.41 0.23 89 1011.6
20260507080036 56 291 0.0 0.0 0.00 0.41 0.23 89 1011.1
20260507074558 56 0 0.0 5.0 0.00 0.41 0.23 92 1011.0
20260507073042 56 94 0.0 4.0 0.00 0.41 0.23 92 1010.7
20260507071544 56 350 0.0 0.0 0.00 0.41 0.23 92 1010.7
20260507070043 56 0 2.0 2.0 0.00 0.41 0.23 92 1010.7
20260507064541 56 0 3.0 3.0 0.01 0.41 0.23 92 1010.7
20260507063040 56 293 1.0 3.0 0.03 0.41 0.23 92 1010.8
20260507061540 56 314 1.0 2.0 0.04 0.41 0.23 91 1010.2
20260507060040 56 0 0.0 1.0 0.06 0.41 0.23 91 1010.1
20260507054604 56 288 1.0 4.0 0.11 0.40 0.22 91 1010.4
20260507053049 57 314 1.0 2.0 0.15 0.38 0.20 91 1010.6
20260507051542 58 320 5.0 5.0 0.19 0.37 0.19 91 1010.4
20260507050042 59 315 1.0 1.0 0.17 0.35 0.17 91 1010.5
20260507044548 59 319 0.0 1.0 0.11 0.29 0.11 77 1010.8
20260507043045 61 349 0.0 5.0 0.05 0.23 0.05 77 1011.1
20260507041542 63 311 0.0 4.0 0.00 0.18 0.00 77 1010.4
20260507040044 63 64 2.0 5.0 0.00 0.18 0.00 73 1010.3
20260507034551 64 323 1.0 5.0 0.00 0.18 0.18 73 1010.0
20260507033045 64 68 0.0 2.0 0.00 0.18 0.18 80 1010.0
20260507031602 65 288 1.0 2.0 0.00 0.18 0.18 80 1009.9
20260507030050 65 311 3.0 3.0 0.00 0.18 0.18 80 1009.6
20260507024544 66 72 1.0 1.0 0.00 0.18 0.18 85 1009.6
20260507023040 67 0 1.0 1.0 0.00 0.18 0.18 85 1009.2
20260507021540 67 0 0.0 0.0 0.00 0.18 0.18 85 1009.1
20260507020048 67 0 0.0 0.0 0.00 0.18 0.18 84 1009.1
20260507014548 67 0 0.0 0.0 0.00 0.18 0.18 84 1009.1
20260507013044 67 0 0.0 0.0 0.00 0.18 0.18 84 1009.2
20260507011542 67 0 0.0 0.0 0.00 0.18 0.18 84 1009.4
20260507010047 66 0 0.0 0.0 0.00 0.18 0.18 84 1009.5
20260507004544 67 0 0.0 0.0 0.00 0.18 0.18 84 1009.1
20260507003049 68 0 0.0 0.0 0.00 0.18 0.18 80 1009.1
20260507001543 68 0 0.0 0.0 0.18 0.18 0.18 80 1008.9
20260507000042 68 0 0.0 0.0 0.18 0.18 0.18 80 1008.8
20260506234547 69 0 0.0 0.0 0.18 0.18 0.18 78 1008.7
20260506233055 69 0 0.0 0.0 0.18 0.18 0.18 78 1008.3
20260506231545 69 0 0.0 0.0 0.00 0.00 0.00 78 1008.3
20260506230042 69 0 0.0 0.0 0.00 0.00 0.00 77 1008.3
20260506224541 69 0 0.0 3.0 0.00 0.00 0.00 77 1008.1
20260506223040 69 230 1.0 2.0 0.00 0.00 0.00 77 1008.0
20260506221540 69 0 0.0 1.0 0.00 0.00 0.00 76 1008.1
20260506220040 69 69 0.0 2.0 0.00 0.00 0.00 76 1008.2
20260506214540 69 273 1.0 2.0 0.00 0.00 0.00 76 1008.3
20260506213055 70 0 0.0 1.0 0.00 0.00 0.00 76 1008.3
20260506211542 69 203 0.0 6.0 0.00 0.00 0.00 76 1008.1
20260506210041 69 231 1.0 2.0 0.00 0.00 0.00 76 1008.0
20260506204546 69 28 5.0 6.0 0.00 0.00 0.00 77 1007.9
20260506203040 69 45 4.0 8.0 0.00 0.00 0.00 77 1007.9
20260506201546 69 271 0.0 0.0 0.00 0.00 0.00 78 1007.9
20260506200042 69 195 0.0 4.0 0.00 0.00 0.00 78 1007.9
20260506194541 69 123 0.0 8.0 0.00 0.00 0.00 78 1008.0
20260506193040 68 187 3.0 4.0 0.00 0.00 0.00 79 1008.0
20260506191541 67 247 1.0 3.0 0.00 0.00 0.00 79 1008.4
20260506190041 67 310 2.0 3.0 0.00 0.00 0.00 79 1008.6
20260506184549 67 272 3.0 3.0 0.00 0.00 0.00 79 1008.7
20260506183042 67 164 7.0 7.0 0.00 0.00 0.00 79 1008.5
20260506181541 67 309 1.0 2.0 0.00 0.00 0.00 79 1008.9
20260506180050 67 219 3.0 4.0 0.00 0.00 0.00 82 1009.0
20260506174546 66 229 2.0 4.0 0.00 0.00 0.00 82 1009.0
20260506173040 65 139 5.0 5.0 0.00 0.00 0.00 82 1009.2
20260506171550 65 44 2.0 10.0 0.00 0.00 0.00 87 1009.1
20260506170056 65 284 3.0 5.0 0.00 0.00 0.00 87 1009.3
20260506164541 64 265 3.0 4.0 0.00 0.00 0.00 87 1009.4
20260506163057 63 159 5.0 10.0 0.00 0.00 0.00 92 1009.5
20260506161539 63 208 3.0 3.0 0.00 0.00 0.00 92 1009.7
20260506160049 63 147 1.0 5.0 0.00 0.00 0.00 92 1009.6
20260506154604 62 234 1.0 1.0 0.00 0.00 0.00 92 1009.9
20260506153058 61 0 1.0 4.0 0.00 0.00 0.00 92 1010.0
20260506151541 61 100 3.0 4.0 0.00 0.00 0.00 92 1010.1
20260506150040 61 195 1.0 1.0 0.00 0.00 0.00 91 1010.5
20260506144548 61 131 0.0 6.0 0.00 0.00 0.00 91 1010.6
20260506143059 61 174 3.0 7.0 0.00 0.00 0.00 91 1010.7
20260506141544 60 226 1.0 2.0 0.00 0.00 0.00 88 1010.6
20260506140042 61 220 0.0 4.0 0.00 0.00 0.00 88 1010.7
20260506134541 61 238 1.0 4.0 0.00 0.00 0.00 88 1010.8
20260506133041 61 26 4.0 4.0 0.00 0.00 0.00 85 1010.9
20260506131541 62 189 0.0 4.0 0.00 0.00 0.00 85 1010.8
20260506130039 62 155 2.0 3.0 0.00 0.00 0.00 85 1010.6
20260506124548 62 234 1.0 8.0 0.00 0.00 0.00 81 1010.2
20260506123042 63 162 2.0 2.0 0.00 0.00 0.00 81 1010.1
20260506121543 63 188 1.0 5.0 0.00 0.00 0.00 75 1010.5